Weather History for Flamingo Airport, Bonaire, Bonaire

Change the Weather History Date:

Monday, February 11, 2013

  Actual Average Record
Temperature  
Mean Temperature 81 °F -  
Max Temperature 85 °F 84 °F - ()
Min Temperature 77 °F 77 °F - ()
Cooling Degree Days 16    
Growing Degree Days 31 (Base 50)    
Moisture  
Dew Point 70 °F    
Average Humidity 69    
Maximum Humidity 78    
Minimum Humidity 55    
Precipitation  
Precipitation 0.00 in - - ()
Sea Level Pressure  
Sea Level Pressure 29.99 in    
Wind  
Wind Speed 12 mph ()    
Max Wind Speed 21 mph    
Max Gust Speed -    
Visibility 8.5 miles    
Events      
T = Trace of Precipitation, MM = Missing Value Source: Averaged Metar Reports

Daily Weather History Graph

Daily Weather History Graph

Search for Another Location

Airport:

Trip Planner

Search our weather history database for the weather conditions in past years. The results will help you decide how hot, cold, wet, or windy it might be!

Date:

Astronomy

Feb. 11, 2013 Rise Set
Actual Time 6:56 AM AST 6:38 PM AST
Civil Twilight 6:34 AM AST 7:00 PM AST
Nautical Twilight 6:09 AM AST 7:25 PM AST
Astronomical Twilight 5:44 AM AST 7:50 PM AST
Moon 7:42 AM AST (2/11) 8:01 PM AST (2/11)
Length of Visible Light 12h 26m
Length of Day
11h 42m
New Moon, 2% of the Moon is Illuminated
Feb 11
New Moon
Feb 17
First Quarter
Feb 25
Full
Mar 4
Last Quarter
Mar 11
New

Hourly Weather History & Observations

Time (AST) Temp. Heat Index Dew Point Humidity Pressure Visibility Wind Dir Wind Speed Gust Speed Precip Events Conditions
12:00 AM 78.8 °F - 71.6 °F 78% 30.01 in - ENE 11.5 mph - N/A   Unknown
1:00 AM 78.8 °F - 71.6 °F 78% 30.01 in - ENE 9.2 mph - N/A   Unknown
2:00 AM 78 °F - 69 °F 68%  in - ENE 9.2 mph - -   Clear
2:00 AM 78.8 °F - 69.8 °F 74% 29.98 in - ENE 9.2 mph - N/A   Unknown
3:00 AM 78.8 °F - 71.6 °F 78% 29.98 in - ENE 10.4 mph - N/A   Unknown
4:00 AM 77.0 °F - 69.8 °F 78% 29.95 in - ENE 9.2 mph - N/A   Unknown
6:00 AM 78.8 °F - 69.8 °F 74% 29.98 in - East 12.7 mph - N/A   Unknown
7:00 AM 78.8 °F - 71.6 °F 78% 29.98 in - East 10.4 mph - N/A   Unknown
8:00 AM 80.6 °F 83.9 °F 69.8 °F 70% 30.01 in - East 17.3 mph - N/A   Unknown
9:00 AM 82.4 °F 87.2 °F 71.6 °F 70% 30.01 in 6.2 mi East 17.3 mph - N/A   Mostly Cloudy
11:00 AM 84.2 °F 89.6 °F 71.6 °F 66% 30.04 in 6.2 mi East 17.3 mph - N/A   Scattered Clouds
12:00 PM 84.2 °F 90.9 °F 73.4 °F 70% 30.04 in 6.2 mi East 20.7 mph - N/A   Scattered Clouds
1:00 PM 84.2 °F 89.6 °F 71.6 °F 66% 30.01 in 6.2 mi East 20.7 mph - N/A   Scattered Clouds
2:00 PM 85 °F - 71 °F 55%  in 6 mi East 16.1 mph - -   Clear
2:00 PM 84.2 °F 89.6 °F 71.6 °F 66% 29.98 in - East 16.1 mph - N/A   Unknown
3:00 PM 84.2 °F 89.6 °F 71.6 °F 66% 29.95 in 6.2 mi East 17.3 mph - N/A   Scattered Clouds
4:00 PM 84.2 °F 88.4 °F 69.8 °F 62% 29.95 in 6.2 mi East 17.3 mph - N/A   Scattered Clouds
5:00 PM 82 °F - 71 °F 61% 29.96 in 19 mi East 18.4 mph - -   Partly Cloudy
5:00 PM 82.4 °F 87.2 °F 71.6 °F 70% 29.95 in 6.2 mi East 18.4 mph - N/A   Scattered Clouds
7:00 PM 78.8 °F - 68.0 °F 69% 29.95 in - East 12.7 mph - N/A   Unknown
8:00 PM 79 °F - 68 °F 60% 29.99 in 19 mi East 10.4 mph - -   Partly Cloudy
8:00 PM 78.8 °F - 68.0 °F 69% 29.98 in 6.2 mi ENE 12.7 mph - N/A   Scattered Clouds
9:00 PM 78.8 °F - 66.2 °F 65% 29.98 in - East 12.7 mph - N/A   Unknown
11:00 PM 78.8 °F - 66.2 °F 65% 30.01 in - East 10.4 mph - N/A   Unknown